Regional Weather Roundup
Issued by NWS

Home | Current Version | Previous Version | Graphics & Text | Print | Product List | Glossary On
Versions: 1 2 3 4 5 6 7 8 9 10 11 12 13 14 15 16 17 18 19 20 21 22 23 24 25 26 27 28 29 30 31 32 33 34 35 36 37 38 39 40 41 42 43 44 45 46 47 48 49 50
000
ASUS43 KFSD 221410
RWRSD

WEATHER ROUNDUP FOR SOUTH DAKOTA
NATIONAL WEATHER SERVICE SIOUX FALLS SD
900 AM CDT SUN APR 22 2018

NOTE: "FAIR" INDICATES FEW OR NO CLOUDS BELOW 12,000 FEET WITH NO
SIGNIFICANT WEATHER AND/OR OBSTRUCTIONS TO VISIBILITY.


SDZ001>005-009-010-012>017-221500-
NORTHWEST AND NORTH CENTRAL SOUTH DAKOTA

CITY           SKY/WX    TMP DP  RH WIND       PRES   REMARKS
BUFFALO          N/A     42  37  82 CALM      30.09R
FAITH            N/A     41  38  89 S16       30.16R
MOBRIDGE       SUNNY     41  36  82 SE12      30.19F
$$

SDZ012>016-024>037-041>051-057-063-072>074-221500-
SOUTHWEST AND SOUTH CENTRAL SOUTH DAKOTA

CITY           SKY/WX    TMP DP  RH WIND       PRES   REMARKS
RAPID CTY ARPT SUNNY     38  34  85 CALM      30.17R
PIERRE         MOSUNNY   42  37  82 SE6       30.24R
CUSTER         SUNNY     41  35  79 CALM      30.17R
ELLSWORTH AFB  SUNNY    N/A N/A N/A CALM      30.17R
PHILIP         MOSUNNY   42  38  85 S3        30.20S
PINE RIDGE     PTSUNNY   41  39  93 SW10      30.19R
SPEARFISH      FAIR      46  36  66 CALM      30.17S
WINNER         FAIR      45  36  70 S7        30.25R
$$

SDZ004>011-016>023-039-040-221500-
NORTHEAST SOUTH DAKOTA

CITY           SKY/WX    TMP DP  RH WIND       PRES   REMARKS
ABERDEEN       SUNNY     43  37  79 S7        30.28R
WATERTOWN      CLOUDY    40  35  83 SE8       30.29S
BROOKINGS      SUNNY     45  36  70 SE5       30.30F
SISSETON         N/A     44  36  73 SE9       30.27F
$$

SDZ017-020-022-023-036>040-048>070-221500-
SOUTHEAST SOUTH DAKOTA

CITY           SKY/WX    TMP DP  RH WIND       PRES   REMARKS
SIOUX FALLS    MOSUNNY   45  35  68 E5        30.30S
HURON            N/A     44  37  76 S8        30.28R
CHAMBERLAIN    SUNNY     45  42  89 CALM      30.26S
MITCHELL       SUNNY     43  38  82 SE7       30.29F
YANKTON        SUNNY     44  36  73 CALM      30.30
$$

ABBREVIATIONS USED IN REMARKS
   TC - TEMPERATURE IN CELSIUS
  WCI - WIND CHILL INDEX
   HX - HEAT INDEX
  VSB - VISIBILITY




USA.gov is the U.S. government's official web portal to all federal, state and local government web resources and services.